SCP
0 0 0 0 0 -0 0 0 0 -0 -0 -0 -0 -0 -0 -0 -0 -0 0 0 0 0 -0 0 -0 0 0 0 0 -0 -0 -0 -0 -0 -0 -0 -0 -0 -0 -0 -0 -0 -0
0 0 0 0 0 0 0 0 0 0 0 -0 -0 -0 -0 -0 -0 -0 0 0 0 0 -0 0 0 -0 0 0 0 -0 -0 -0 -0 -0 -0 -0 -0 -0 -0 -0 -0 -0 -0
0 0 0 0 0 0 0 0 0 0 0 0 -0 -0 -0 0 -0 -0 0 0 0 0 0 0 0 0 0 0 0 0 -0 -0 -0 -0 -0 0 -0 -0 -0 -0 -0 -0 -0
0 0 0 0 0 0 0 0 0 0 0 0 0 0 0 0 0 -0 0 0 0 0 0 0 0 0 0 0 -0 0 -0 -0 -0 -0 0 0 -0 -0 -0 -0 -0 -0 0
0 0 0 0 0 0 0 0 0 0 0 0 0 0 0 0 0 0 0 0 0 0 0 0 0 -0 -0 -0 -0 -0 -0 0 0 0 0 0 -0 0 -0 -0 -0 -0 0
0 0 0 0 0 0 0 0 0 0 0 0 0 0 0 0 0 0 0 0 0 0 0 0 0 0 0 0 0 0 0 0 0 0 0 0 0 0 0 0 0 0 0
1 1 0 0 1 0 1 0 0 0 0 0 0 0 0 0 0 0 0 0 0 0 0 0 0 0 0 0 0 0 0 0 0 0 0 0 0 0 0 0 0 0 0
1 1 1 0 1 1 1 0 0 0 0 0 0 0 0 0 0 0 0 0 0 0 0 0 0 0 0 0 0 0 0 0 0 0 0 0 -0 0 0 0 0 0 0
1 1 1 1 1 1 1 1 0 0 0 0 0 0 0 0 0 0 0 0 0 0 0 0 0 0 0 0 0 0 0 0 0 0 0 0 0 0 0 0 0 0 0
1 1 1 1 1 1 1 1 1 1 0 0 0 0 0 0 0 0 0 0 0 0 0 0 0 0 0 0 0 0 0 0 0 0 0 0 0 0 0 0 0 0 0
1 1 1 1 1 1 1 1 0 0 0 0 0 0 0 0 0 0 0 0 0 0 0 0 0 0 0 0 0 0 0 0 0 0 0 0 0 0 0 0 0 0 0
0 1 1 1 1 1 2 1 1 1 0 0 0 0 0 0 0 0 0 0 0 0 0 0 0 0 0 0 0 0 0 0 0 0 0 0 0 0 0 0 0 0 0
0 0 1 1 1 1 2 1 1 1 1 0 0 0 0 0 0 0 0 0 0 0 0 0 0 0 0 0 0 0 0 0 0 0 0 0 0 0 0 0 0 0 0
0 0 0 0 1 1 1 2 1 1 1 1 0 0 0 0 0 0 0 0 0 0 0 0 0 0 0 0 0 0 0 0 0 0 0 0 0 0 0 0 0 0 -0
0 0 0 0 1 1 1 1 2 1 1 1 0 0 0 0 0 0 0 0 0 0 0 0 0 0 0 0 0 0 0 0 0 0 0 0 0 0 0 0 0 0 0
0 0 0 0 0 1 1 1 2 2 1 1 0 0 0 0 0 0 0 0 0 0 0 0 0 0 0 0 0 0 0 0 0 0 0 0 0 0 0 0 0 0 0
0 0 0 0 0 1 1 1 1 1 1 1 0 0 0 0 0 0 0 0 0 0 0 0 0 0 0 0 0 0 0 0 0 0 0 0 0 0 0 0 0 0 0
0 0 0 0 0 0 1 1 1 1 1 1 0 0 0 0 0 0 0 0 0 0 0 0 0 0 0 0 0 0 0 0 0 0 0 0 0 0 0 0 0 0 0
-0 -0 0 0 0 0 0 1 1 0 0 0 1 1 0 0 0 0 0 0 0 0 0 0 0 0 0 0 0 0 0 0 0 0 0 0 0 0 0 0 0 0 0
-0 0 0 0 0 0 0 0 0 1 0 0 0 1 0 0 0 0 0 0 0 0 0 0 0 0 0 0 0 0 0 0 0 0 0 0 0 0 0 0 0 0 0
-0 -0 0 0 0 0 0 0 0 0 0 0 0 0 0 0 0 0 0 0 0 0 0 0 0 0 0 0 0 0 0 0 0 0 0 0 0 0 0 0 0 0 0
0 -0 0 0 0 0 0 0 1 0 1 0 0 0 0 0 0 0 0 0 0 0 0 0 0 0 0 0 0 0 0 0 0 0 0 0 0 0 0 0 0 0 0
0 0 -0 -0 0 0 0 0 0 0 0 0 0 0 0 0 0 0 0 0 0 0 0 0 0 0 0 0 0 0 0 0 0 0 0 0 0 0 0 0 0 0 0
0 0 0 0 0 0 0 0 0 0 0 0 0 0 0 0 0 0 0 0 0 0 0 0 0 0 0 0 0 0 0 0 0 0 0 0 0 0 0 0 0 0 0
0 0 0 0 0 0 0 0 0 0 0 0 0 0 0 0 0 0 0 0 0 0 0 0 0 0 0 0 0 0 0 0 0 0 0 0 0 0 0 0 0 0 0
0 0 0 0 0 0 0 0 0 0 0 0 0 0 0 0 0 0 0 0 0 0 0 0 0 0 0 0 0 0 0 0 0 0 0 0 0 0 0 0 0 0 0
Wind_Speed_500mb
44 58 61 58 54 53 49 46 43 41 40 38 36 35 36 36 38 36 35 29 22 22 22 24 33 34 35 33 31 27 25 30 32 32 30 24 28 32 27 32 35 33 33
40 60 62 59 56 54 53 48 44 41 39 39 36 34 35 38 38 34 31 27 20 18 24 28 35 31 32 20 33 30 30 29 30 32 32 27 30 30 28 28 33 30 30
36 59 64 60 57 55 53 51 46 42 39 37 35 35 36 37 36 35 34 30 29 30 26 21 35 29 29 28 36 37 35 32 31 33 33 30 29 26 28 31 29 26 31
29 49 61 62 59 55 52 52 49 45 42 38 36 36 36 39 40 38 42 40 38 40 38 21 32 25 29 36 40 38 36 30 27 23 25 21 24 24 26 27 22 32 33
32 39 56 63 59 57 54 51 50 48 45 41 38 37 37 37 36 39 40 38 30 32 27 28 35 30 26 38 35 35 32 29 28 23 21 19 24 24 20 21 27 32 35
33 38 45 61 61 58 55 52 52 50 49 44 40 37 35 34 34 34 37 38 38 40 37 37 35 36 32 39 37 32 28 28 26 22 18 17 18 22 19 17 27 39 28
36 38 40 56 61 60 58 56 55 52 52 48 42 39 35 33 33 31 41 40 37 38 37 40 34 43 40 37 33 29 25 25 23 22 19 15 15 17 16 18 27 33 24
36 40 41 51 60 61 61 60 58 56 55 52 47 42 38 35 35 34 39 38 30 39 37 36 36 42 41 38 31 26 21 18 20 20 18 17 15 19 15 19 22 23 26
42 41 45 51 60 62 63 62 61 60 58 54 50 45 41 39 38 38 37 34 32 36 38 37 37 37 39 40 36 30 25 20 17 18 17 17 18 23 24 23 24 25 26
44 43 48 53 57 63 65 64 63 60 60 57 52 46 43 42 40 40 36 31 28 33 36 33 33 34 36 38 39 33 25 20 18 18 14 14 19 21 24 25 25 26 25
46 50 54 53 56 64 68 68 64 62 62 58 54 48 45 45 42 41 38 32 25 28 33 31 32 32 32 35 39 34 28 23 20 18 16 15 16 21 24 24 25 24 25
47 52 53 57 54 64 70 70 68 67 65 63 61 55 52 49 47 45 40 35 28 25 25 29 29 32 32 34 38 36 32 27 21 19 18 17 15 21 23 25 28 28 28
26 53 57 61 56 61 67 70 71 70 69 68 66 61 56 54 51 49 45 42 39 32 28 31 32 33 33 33 35 34 34 29 24 22 21 18 16 23 27 27 31 31 31
27 37 53 58 64 68 70 72 76 76 74 74 70 66 63 61 59 55 53 48 47 40 33 27 31 32 34 34 34 35 36 31 28 24 23 21 17 21 24 25 31 35 35
44 23 21 53 63 70 76 74 77 80 80 78 76 72 68 66 66 58 55 53 51 46 39 30 33 36 37 37 37 37 38 35 31 26 28 23 23 24 25 20 25 31 35
57 38 16 30 51 63 71 74 79 83 83 82 80 78 74 70 69 66 60 58 55 51 44 36 34 37 39 39 39 37 37 36 33 30 29 28 27 26 30 30 26 31 37
61 49 37 18 30 42 56 70 78 84 88 87 84 82 79 75 72 67 67 64 60 55 48 40 36 39 43 44 44 42 39 38 37 33 32 32 31 29 30 41 37 30 37
61 50 47 37 18 25 40 46 66 81 92 89 88 85 82 77 72 70 71 69 62 58 51 46 42 43 46 48 46 45 42 41 39 38 38 38 36 35 32 34 47 41 40
80 67 42 47 30 25 26 35 42 45 51 72 90 86 80 76 71 71 72 71 64 62 59 53 46 43 44 47 47 45 42 43 42 42 42 40 39 38 33 32 35 48 44
70 86 69 58 41 38 30 25 28 33 32 39 89 85 81 72 67 67 71 72 67 66 63 60 51 44 44 42 44 45 42 43 44 45 44 43 41 42 39 37 37 39 50
52 60 70 75 81 49 40 36 31 35 31 30 50 84 77 74 63 73 77 77 72 73 66 60 56 51 47 44 43 44 46 47 48 47 43 43 39 41 46 46 43 42 42
40 55 64 60 64 74 52 48 38 33 29 30 32 59 94 88 83 82 82 84 81 77 71 66 61 57 53 47 51 48 34 52 59 53 50 51 47 52 54 53 50 50 49
44 42 38 44 45 42 61 53 52 43 39 33 34 41 75 89 78 79 83 89 89 82 79 70 66 63 59 53 56 46 23 30 28 49 59 59 58 61 59 57 57 56 55
39 47 43 40 47 51 40 43 48 50 46 42 38 36 52 71 82 94 81 91 96 88 87 77 70 64 61 62 61 68 65 28 24 19 41 56 61 67 70 66 65 61 64
40 48 34 42 47 41 43 39 45 47 45 41 44 45 51 41 56 58 74 88 96 88 92 84 74 69 64 68 69 70 73 75 58 46 38 41 48 59 64 71 68 68 67
31 41 41 38 30 30 43 43 40 44 42 49 44 44 55 64 68 75 78 76 87 92 110 80 80 69 70 70 74 75 74 78 81 79 67 69 63 60 56 56 60 62 67
Wind_Direction_500mb
185 180 178 176 175 176 177 177 176 174 172 169 173 178 180 181 179 178 181 184 185 183 170 161 157 160 154 144 146 141 147 135 133 127 122 121 127 136 138 118 122 116 119
183 180 180 181 180 180 180 182 180 179 176 171 169 172 173 177 180 179 183 188 185 171 159 160 164 164 184 157 147 143 143 143 140 128 124 133 125 127 139 123 127 126 119
186 182 183 185 184 185 184 184 184 184 180 176 172 169 167 168 171 169 162 150 140 141 151 163 168 158 172 167 151 151 156 140 138 141 135 137 125 134 131 122 123 122 121
187 185 188 187 188 188 187 187 185 186 184 183 176 173 167 164 161 162 160 162 168 157 166 159 153 158 157 164 162 153 162 153 151 129 146 144 126 135 133 133 149 140 137
188 193 196 193 192 191 190 190 189 187 189 187 185 180 174 172 171 175 175 178 188 163 176 160 156 156 162 149 150 150 155 142 133 132 148 151 142 142 148 143 143 140 134
189 196 199 199 196 195 194 192 193 191 191 193 189 188 185 182 178 180 184 183 183 167 164 162 168 163 158 153 162 161 161 156 144 138 142 153 154 155 167 147 151 139 141
194 195 198 202 202 200 197 195 195 196 193 194 193 190 191 189 183 178 171 184 178 173 167 167 164 171 164 165 166 165 159 154 155 151 146 156 172 162 158 147 157 164 150
208 202 198 202 204 205 201 198 196 200 196 194 195 194 196 195 187 183 180 190 206 175 179 173 170 167 169 174 174 180 176 170 163 165 161 163 168 156 158 156 153 156 152
204 204 202 201 205 208 206 202 199 200 199 197 197 197 199 198 192 193 192 194 207 182 184 185 178 174 174 183 185 189 194 189 180 172 174 172 169 164 172 165 161 158 158
210 206 206 203 206 209 210 207 203 203 201 201 201 201 199 199 196 199 198 206 209 192 181 180 173 175 178 182 185 190 199 198 200 197 197 193 187 186 182 178 178 175 170
229 216 205 207 207 210 211 210 207 205 204 204 203 205 203 198 198 201 203 206 195 196 189 182 180 181 180 183 187 194 204 211 220 222 218 208 199 202 198 190 188 191 186
232 226 216 209 210 211 212 210 208 206 205 205 205 204 204 200 199 205 208 210 203 205 199 189 189 185 188 190 194 200 206 211 220 211 218 227 232 210 206 203 208 201 205
254 229 230 219 213 214 216 212 210 207 206 207 207 207 203 202 201 202 207 212 210 206 204 201 202 194 195 198 200 205 210 213 215 219 220 227 242 221 219 224 224 221 216
277 234 231 232 226 219 218 217 214 209 209 209 208 208 204 202 203 203 206 212 213 212 211 215 215 209 203 204 206 208 212 217 224 225 228 229 236 231 233 244 235 226 223
281 249 247 234 230 230 222 219 218 215 212 212 210 209 208 207 208 207 210 214 217 219 219 222 220 218 213 210 212 213 215 221 228 231 232 235 235 236 232 234 246 232 218
275 273 258 248 230 229 228 223 220 220 217 216 214 212 210 212 212 212 214 216 221 222 224 226 230 226 221 218 218 217 219 225 230 235 235 240 241 245 239 224 233 241 231
268 276 261 267 232 228 223 227 227 226 222 218 217 214 212 213 214 213 217 220 221 224 225 226 232 229 225 223 222 223 226 230 233 237 243 247 247 253 254 236 228 233 234
268 273 271 258 261 243 230 223 227 233 222 221 220 216 214 216 217 214 219 222 225 225 225 227 232 231 230 229 228 227 229 232 240 245 245 247 252 257 258 250 236 233 231
253 259 262 260 262 260 245 226 228 231 242 234 219 218 219 218 222 222 223 223 226 226 226 229 230 233 233 233 232 234 237 238 243 245 246 245 250 257 260 259 248 238 237
250 248 255 254 255 255 249 236 235 242 241 241 204 221 214 218 225 227 230 231 227 226 226 227 229 231 233 234 235 236 239 240 240 241 246 248 246 252 266 264 263 250 243
236 235 256 256 252 257 253 239 236 241 243 239 236 232 243 224 230 233 232 232 229 226 226 229 231 228 230 227 232 238 238 240 240 238 240 241 244 252 255 258 258 261 253
278 221 227 249 258 246 244 241 241 245 250 264 260 243 233 226 226 225 234 233 232 226 226 226 231 233 232 227 225 233 247 249 244 240 236 236 241 250 252 253 257 259 264
254 216 212 228 239 240 236 233 236 240 246 250 242 251 225 226 226 222 229 232 231 226 227 227 230 233 235 232 230 224 216 235 247 249 241 241 240 243 252 255 257 256 258
243 242 227 227 244 236 234 227 226 234 242 251 257 244 227 234 234 233 222 233 228 226 226 228 234 233 236 236 231 233 234 245 235 252 247 244 245 245 252 255 254 258 259
255 245 250 224 231 233 231 231 227 233 239 245 249 251 236 241 240 247 243 240 239 226 228 226 234 232 239 241 239 239 238 239 244 247 260 252 250 254 256 257 257 256 258
246 244 244 224 232 237 227 232 230 239 245 244 241 252 243 231 230 235 241 241 248 234 237 226 229 235 247 246 246 244 245 241 241 243 250 256 260 264 265 268 265 265 264
Wind_Speed_850mb
44 58 61 58 54 53 49 46 43 41 40 38 36 35 36 36 38 36 35 29 22 22 22 24 33 34 35 33 31 27 25 30 32 32 30 24 28 32 27 32 35 33 33
40 60 62 59 56 54 53 48 44 41 39 39 36 34 35 38 38 34 31 27 20 18 24 28 35 31 32 20 33 30 30 29 30 32 32 27 30 30 28 28 33 30 30
36 59 64 60 57 55 53 51 46 42 39 37 35 35 36 37 36 35 34 30 29 30 26 21 35 29 29 28 36 37 35 32 31 33 33 30 29 26 28 31 29 26 31
29 49 61 62 59 55 52 52 49 45 42 38 36 36 36 39 40 38 42 40 38 40 38 21 32 25 29 36 40 38 36 30 27 23 25 21 24 24 26 27 22 32 33
32 39 56 63 59 57 54 51 50 48 45 41 38 37 37 37 36 39 40 38 30 32 27 28 35 30 26 38 35 35 32 29 28 23 21 19 24 24 20 21 27 32 35
33 38 45 61 61 58 55 52 52 50 49 44 40 37 35 34 34 34 37 38 38 40 37 37 35 36 32 39 37 32 28 28 26 22 18 17 18 22 19 17 27 39 28
36 38 40 56 61 60 58 56 55 52 52 48 42 39 35 33 33 31 41 40 37 38 37 40 34 43 40 37 33 29 25 25 23 22 19 15 15 17 16 18 27 33 24
36 40 41 51 60 61 61 60 58 56 55 52 47 42 38 35 35 34 39 38 30 39 37 36 36 42 41 38 31 26 21 18 20 20 18 17 15 19 15 19 22 23 26
42 41 45 51 60 62 63 62 61 60 58 54 50 45 41 39 38 38 37 34 32 36 38 37 37 37 39 40 36 30 25 20 17 18 17 17 18 23 24 23 24 25 26
44 43 48 53 57 63 65 64 63 60 60 57 52 46 43 42 40 40 36 31 28 33 36 33 33 34 36 38 39 33 25 20 18 18 14 14 19 21 24 25 25 26 25
46 50 54 53 56 64 68 68 64 62 62 58 54 48 45 45 42 41 38 32 25 28 33 31 32 32 32 35 39 34 28 23 20 18 16 15 16 21 24 24 25 24 25
47 52 53 57 54 64 70 70 68 67 65 63 61 55 52 49 47 45 40 35 28 25 25 29 29 32 32 34 38 36 32 27 21 19 18 17 15 21 23 25 28 28 28
26 53 57 61 56 61 67 70 71 70 69 68 66 61 56 54 51 49 45 42 39 32 28 31 32 33 33 33 35 34 34 29 24 22 21 18 16 23 27 27 31 31 31
27 37 53 58 64 68 70 72 76 76 74 74 70 66 63 61 59 55 53 48 47 40 33 27 31 32 34 34 34 35 36 31 28 24 23 21 17 21 24 25 31 35 35
44 23 21 53 63 70 76 74 77 80 80 78 76 72 68 66 66 58 55 53 51 46 39 30 33 36 37 37 37 37 38 35 31 26 28 23 23 24 25 20 25 31 35
57 38 16 30 51 63 71 74 79 83 83 82 80 78 74 70 69 66 60 58 55 51 44 36 34 37 39 39 39 37 37 36 33 30 29 28 27 26 30 30 26 31 37
61 49 37 18 30 42 56 70 78 84 88 87 84 82 79 75 72 67 67 64 60 55 48 40 36 39 43 44 44 42 39 38 37 33 32 32 31 29 30 41 37 30 37
61 50 47 37 18 25 40 46 66 81 92 89 88 85 82 77 72 70 71 69 62 58 51 46 42 43 46 48 46 45 42 41 39 38 38 38 36 35 32 34 47 41 40
80 67 42 47 30 25 26 35 42 45 51 72 90 86 80 76 71 71 72 71 64 62 59 53 46 43 44 47 47 45 42 43 42 42 42 40 39 38 33 32 35 48 44
70 86 69 58 41 38 30 25 28 33 32 39 89 85 81 72 67 67 71 72 67 66 63 60 51 44 44 42 44 45 42 43 44 45 44 43 41 42 39 37 37 39 50
52 60 70 75 81 49 40 36 31 35 31 30 50 84 77 74 63 73 77 77 72 73 66 60 56 51 47 44 43 44 46 47 48 47 43 43 39 41 46 46 43 42 42
40 55 64 60 64 74 52 48 38 33 29 30 32 59 94 88 83 82 82 84 81 77 71 66 61 57 53 47 51 48 34 52 59 53 50 51 47 52 54 53 50 50 49
44 42 38 44 45 42 61 53 52 43 39 33 34 41 75 89 78 79 83 89 89 82 79 70 66 63 59 53 56 46 23 30 28 49 59 59 58 61 59 57 57 56 55
39 47 43 40 47 51 40 43 48 50 46 42 38 36 52 71 82 94 81 91 96 88 87 77 70 64 61 62 61 68 65 28 24 19 41 56 61 67 70 66 65 61 64
40 48 34 42 47 41 43 39 45 47 45 41 44 45 51 41 56 58 74 88 96 88 92 84 74 69 64 68 69 70 73 75 58 46 38 41 48 59 64 71 68 68 67
31 41 41 38 30 30 43 43 40 44 42 49 44 44 55 64 68 75 78 76 87 92 110 80 80 69 70 70 74 75 74 78 81 79 67 69 63 60 56 56 60 62 67
Wind_Direction_850mb
185 180 178 176 175 176 177 177 176 174 172 169 173 178 180 181 179 178 181 184 185 183 170 161 157 160 154 144 146 141 147 135 133 127 122 121 127 136 138 118 122 116 119
183 180 180 181 180 180 180 182 180 179 176 171 169 172 173 177 180 179 183 188 185 171 159 160 164 164 184 157 147 143 143 143 140 128 124 133 125 127 139 123 127 126 119
186 182 183 185 184 185 184 184 184 184 180 176 172 169 167 168 171 169 162 150 140 141 151 163 168 158 172 167 151 151 156 140 138 141 135 137 125 134 131 122 123 122 121
187 185 188 187 188 188 187 187 185 186 184 183 176 173 167 164 161 162 160 162 168 157 166 159 153 158 157 164 162 153 162 153 151 129 146 144 126 135 133 133 149 140 137
188 193 196 193 192 191 190 190 189 187 189 187 185 180 174 172 171 175 175 178 188 163 176 160 156 156 162 149 150 150 155 142 133 132 148 151 142 142 148 143 143 140 134
189 196 199 199 196 195 194 192 193 191 191 193 189 188 185 182 178 180 184 183 183 167 164 162 168 163 158 153 162 161 161 156 144 138 142 153 154 155 167 147 151 139 141
194 195 198 202 202 200 197 195 195 196 193 194 193 190 191 189 183 178 171 184 178 173 167 167 164 171 164 165 166 165 159 154 155 151 146 156 172 162 158 147 157 164 150
208 202 198 202 204 205 201 198 196 200 196 194 195 194 196 195 187 183 180 190 206 175 179 173 170 167 169 174 174 180 176 170 163 165 161 163 168 156 158 156 153 156 152
204 204 202 201 205 208 206 202 199 200 199 197 197 197 199 198 192 193 192 194 207 182 184 185 178 174 174 183 185 189 194 189 180 172 174 172 169 164 172 165 161 158 158
210 206 206 203 206 209 210 207 203 203 201 201 201 201 199 199 196 199 198 206 209 192 181 180 173 175 178 182 185 190 199 198 200 197 197 193 187 186 182 178 178 175 170
229 216 205 207 207 210 211 210 207 205 204 204 203 205 203 198 198 201 203 206 195 196 189 182 180 181 180 183 187 194 204 211 220 222 218 208 199 202 198 190 188 191 186
232 226 216 209 210 211 212 210 208 206 205 205 205 204 204 200 199 205 208 210 203 205 199 189 189 185 188 190 194 200 206 211 220 211 218 227 232 210 206 203 208 201 205
254 229 230 219 213 214 216 212 210 207 206 207 207 207 203 202 201 202 207 212 210 206 204 201 202 194 195 198 200 205 210 213 215 219 220 227 242 221 219 224 224 221 216
277 234 231 232 226 219 218 217 214 209 209 209 208 208 204 202 203 203 206 212 213 212 211 215 215 209 203 204 206 208 212 217 224 225 228 229 236 231 233 244 235 226 223
281 249 247 234 230 230 222 219 218 215 212 212 210 209 208 207 208 207 210 214 217 219 219 222 220 218 213 210 212 213 215 221 228 231 232 235 235 236 232 234 246 232 218
275 273 258 248 230 229 228 223 220 220 217 216 214 212 210 212 212 212 214 216 221 222 224 226 230 226 221 218 218 217 219 225 230 235 235 240 241 245 239 224 233 241 231
268 276 261 267 232 228 223 227 227 226 222 218 217 214 212 213 214 213 217 220 221 224 225 226 232 229 225 223 222 223 226 230 233 237 243 247 247 253 254 236 228 233 234
268 273 271 258 261 243 230 223 227 233 222 221 220 216 214 216 217 214 219 222 225 225 225 227 232 231 230 229 228 227 229 232 240 245 245 247 252 257 258 250 236 233 231
253 259 262 260 262 260 245 226 228 231 242 234 219 218 219 218 222 222 223 223 226 226 226 229 230 233 233 233 232 234 237 238 243 245 246 245 250 257 260 259 248 238 237
250 248 255 254 255 255 249 236 235 242 241 241 204 221 214 218 225 227 230 231 227 226 226 227 229 231 233 234 235 236 239 240 240 241 246 248 246 252 266 264 263 250 243
236 235 256 256 252 257 253 239 236 241 243 239 236 232 243 224 230 233 232 232 229 226 226 229 231 228 230 227 232 238 238 240 240 238 240 241 244 252 255 258 258 261 253
278 221 227 249 258 246 244 241 241 245 250 264 260 243 233 226 226 225 234 233 232 226 226 226 231 233 232 227 225 233 247 249 244 240 236 236 241 250 252 253 257 259 264
254 216 212 228 239 240 236 233 236 240 246 250 242 251 225 226 226 222 229 232 231 226 227 227 230 233 235 232 230 224 216 235 247 249 241 241 240 243 252 255 257 256 258
243 242 227 227 244 236 234 227 226 234 242 251 257 244 227 234 234 233 222 233 228 226 226 228 234 233 236 236 231 233 234 245 235 252 247 244 245 245 252 255 254 258 259
255 245 250 224 231 233 231 231 227 233 239 245 249 251 236 241 240 247 243 240 239 226 228 226 234 232 239 241 239 239 238 239 244 247 260 252 250 254 256 257 257 256 258
246 244 244 224 232 237 227 232 230 239 245 244 241 252 243 231 230 235 241 241 248 234 237 226 229 235 247 246 246 244 245 241 241 243 250 256 260 264 265 268 265 265 264